Location: Bourg-d�Oueil
(42.8588°N, 0.4991°E)
Time: 15:05:28
(UTC+00:00)

Genesis I - Pass Details

Date: 16 June 2021
Orbit: 476 x 543 km, 64.5° (Epoch: 04 August)

Event Time Altitude Azimuth Distance (km) Brightness Sun altitude
Rises 20:03:05 0° 196° (SSW) 2,553 6.5 -4.4°
Reaches altitude 10° 20:05:16 10° 190° (S) 1,687 5.5 -4.7°
Maximum altitude 20:08:50 42° 118° (ESE) 726 3.5 -5.3°
Drops below altitude 10° 20:12:31 10° 47° (NE) 1,738 5.8 -5.8°
Sets 20:14:47 0° 41° (NE) 2,642 6.8 -6.1°
